TimePST,TemperatureF,Dew PointF,Humidity,Sea Level PressureIn,VisibilityMPH,Wind Direction,Wind SpeedMPH,Gust SpeedMPH,PrecipitationIn,Events,Conditions,WindDirDegrees,DateUTC
12:58 AM,33.6,33.6,100,30.30,0.5,SW,2.3,-,N/A,Fog,Fog,230,2013-01-21 08:58:00
1:28 AM,32.0,32.0,100,30.26,0.8,Calm,Calm,-,N/A,,Mist,0,2013-01-21 09:28:00
1:58 AM,33.6,33.6,100,30.30,0.8,SW,4.6,-,N/A,,Mist,220,2013-01-21 09:58:00
2:08 AM,32.0,32.0,100,30.27,0.8,SSW,3.5,-,N/A,,Mist,200,2013-01-21 10:08:00
2:13 AM,32.0,32.0,100,30.27,1.0,South,3.5,-,N/A,,Mist,190,2013-01-21 10:13:00
2:18 AM,32.0,32.0,100,30.27,0.8,South,4.6,-,N/A,,Mist,170,2013-01-21 10:18:00
2:23 AM,32.0,32.0,100,30.27,0.8,SSE,3.5,-,N/A,,Mist,150,2013-01-21 10:23:00
2:28 AM,32.0,32.0,100,30.27,0.8,SE,2.3,-,N/A,,Mist,140,2013-01-21 10:28:00
2:33 AM,32.0,32.0,100,30.27,1.0,SE,2.3,-,N/A,,Mist,140,2013-01-21 10:33:00
2:53 AM,32.0,32.0,100,30.27,0.8,South,3.5,-,N/A,,Mist,180,2013-01-21 10:53:00
2:58 AM,33.6,33.6,100,30.27,0.8,SSE,2.3,-,N/A,,Mist,160,2013-01-21 10:58:00
3:28 AM,32.0,32.0,100,30.26,0.8,SSW,1.2,-,N/A,,Mist,200,2013-01-21 11:28:00
3:58 AM,33.4,33.4,100,30.28,0.8,SSW,2.3,-,N/A,,Mist,200,2013-01-21 11:58:00
4:28 AM,33.8,33.8,100,30.25,0.8,South,2.3,-,N/A,,Mist,170,2013-01-21 12:28:00
4:48 AM,33.8,33.8,100,30.24,1.0,SE,2.3,-,N/A,,Mist,130,2013-01-21 12:48:00
4:58 AM,34.0,34.0,100,30.26,1.0,SSE,2.3,-,N/A,,Mist,150,2013-01-21 12:58:00
5:03 AM,33.8,33.8,100,30.24,0.8,East,1.2,-,N/A,,Mist,80,2013-01-21 13:03:00
5:23 AM,33.8,33.8,100,30.24,1.0,East,2.3,-,N/A,,Mist,100,2013-01-21 13:23:00
5:58 AM,34.0,34.0,100,30.25,1.0,SE,3.5,-,N/A,,Mist,130,2013-01-21 13:58:00
6:18 AM,33.8,33.8,100,30.21,0.8,Variable,2.3,-,N/A,,Mist,0,2013-01-21 14:18:00
6:58 AM,34.3,34.3,100,30.22,0.8,ENE,1.2,-,N/A,,Mist,70,2013-01-21 14:58:00
7:03 AM,33.8,33.8,100,30.20,0.8,Calm,Calm,-,N/A,,Mist,0,2013-01-21 15:03:00
7:13 AM,33.8,33.8,100,30.20,1.0,Calm,Calm,-,N/A,,Mist,0,2013-01-21 15:13:00
7:38 AM,33.8,33.8,100,30.20,0.8,Calm,Calm,-,N/A,,Mist,0,2013-01-21 15:38:00
7:43 AM,33.8,33.8,100,30.20,0.5,East,1.2,-,N/A,Fog,Fog,80,2013-01-21 15:43:00
7:58 AM,33.8,33.8,100,30.22,0.5,South,2.3,-,N/A,Fog,Fog,190,2013-01-21 15:58:00
8:58 AM,34.2,34.2,100,30.25,0.5,South,3.5,-,N/A,Fog,Fog,190,2013-01-21 16:58:00
9:18 AM,33.8,33.8,100,30.22,0.8,South,2.3,-,N/A,,Mist,190,2013-01-21 17:18:00
9:23 AM,33.8,33.8,100,30.22,0.5,South,2.3,-,N/A,Fog,Fog,190,2013-01-21 17:23:00
9:43 AM,33.8,33.8,100,30.22,0.8,Variable,1.2,-,N/A,,Mist,0,2013-01-21 17:43:00
9:48 AM,33.8,33.8,100,30.22,0.5,Calm,Calm,-,N/A,Fog,Fog,0,2013-01-21 17:48:00
9:53 AM,33.8,33.8,100,30.22,0.5,Calm,Calm,-,N/A,Fog,Fog,0,2013-01-21 17:53:00
9:58 AM,34.3,34.3,100,30.25,0.5,SSW,2.3,-,N/A,Fog,Fog,200,2013-01-21 17:58:00
10:03 AM,33.8,33.8,100,30.23,0.8,SW,2.3,-,N/A,,Mist,230,2013-01-21 18:03:00
10:18 AM,33.8,33.8,100,30.23,0.8,NW,1.2,-,N/A,,Mist,320,2013-01-21 18:18:00
10:23 AM,33.8,33.8,100,30.23,0.8,SSW,2.3,-,N/A,,Mist,200,2013-01-21 18:23:00
10:33 AM,33.8,33.8,100,30.23,0.8,Calm,Calm,-,N/A,,Mist,0,2013-01-21 18:33:00
10:38 AM,33.8,33.8,100,30.23,0.8,SSW,1.2,-,N/A,,Mist,210,2013-01-21 18:38:00
10:48 AM,35.6,35.6,100,30.23,0.8,Calm,Calm,-,N/A,,Mist,0,2013-01-21 18:48:00
10:58 AM,35.6,35.6,100,30.25,0.8,Calm,Calm,-,N/A,,Mist,0,2013-01-21 18:58:00
11:13 AM,35.6,35.6,100,30.23,0.5,Calm,Calm,-,N/A,Fog,Fog,0,2013-01-21 19:13:00
11:28 AM,35.6,35.6,100,30.23,0.8,Variable,1.2,-,N/A,,Mist,0,2013-01-21 19:28:00
11:48 AM,35.6,35.6,100,30.21,1.0,ENE,3.5,-,N/A,,Mist,70,2013-01-21 19:48:00
11:58 AM,35.1,35.1,100,30.23,1.0,ESE,2.3,-,N/A,,Mist,120,2013-01-21 19:58:00
12:03 PM,35.6,35.6,100,30.21,1.2,Variable,3.5,-,N/A,,Overcast,0,2013-01-21 20:03:00
12:08 PM,35.6,35.6,100,30.20,1.8,NNE,1.2,-,N/A,,Overcast,30,2013-01-21 20:08:00
12:13 PM,35.6,35.6,100,30.20,2.0,Calm,Calm,-,N/A,,Overcast,0,2013-01-21 20:13:00
12:23 PM,35.6,35.6,100,30.20,1.5,Variable,1.2,-,N/A,,Overcast,0,2013-01-21 20:23:00
12:43 PM,35.6,35.6,100,30.20,1.8,NNW,1.2,-,N/A,,Mostly Cloudy,340,2013-01-21 20:43:00
12:53 PM,35.6,35.6,100,30.20,2.0,North,4.6,-,N/A,,Mostly Cloudy,350,2013-01-21 20:53:00
12:58 PM,35.1,35.1,100,30.21,2.5,NNW,4.6,-,N/A,,Mostly Cloudy,340,2013-01-21 20:58:00
1:03 PM,35.6,35.6,100,30.19,3.0,Variable,1.2,-,N/A,,Overcast,0,2013-01-21 21:03:00
1:23 PM,35.6,35.6,100,30.19,2.5,Variable,2.3,-,N/A,,Overcast,0,2013-01-21 21:23:00
1:43 PM,35.6,35.6,100,30.18,2.0,NE,2.3,-,N/A,,Mostly Cloudy,40,2013-01-21 21:43:00
1:53 PM,35.6,35.6,100,30.18,2.5,Variable,1.2,-,N/A,,Mostly Cloudy,0,2013-01-21 21:53:00
1:58 PM,34.9,34.9,100,30.20,2.5,Variable,2.3,-,N/A,,Mostly Cloudy,0,2013-01-21 21:58:00
2:18 PM,35.6,35.6,100,30.17,2.0,Variable,1.2,-,N/A,,Overcast,0,2013-01-21 22:18:00
2:28 PM,35.6,35.6,100,30.17,2.5,Calm,Calm,-,N/A,,Overcast,0,2013-01-21 22:28:00
2:38 PM,33.8,33.8,100,30.17,3.0,NNE,4.6,-,N/A,,Overcast,30,2013-01-21 22:38:00
2:48 PM,33.8,33.8,100,30.17,2.5,NNE,3.5,-,N/A,,Overcast,20,2013-01-21 22:48:00
2:58 PM,33.8,33.8,100,30.18,2.0,Variable,1.2,-,N/A,,Overcast,0,2013-01-21 22:58:00
3:13 PM,33.8,33.8,100,30.16,1.2,Calm,Calm,-,N/A,,Mostly Cloudy,0,2013-01-21 23:13:00
3:23 PM,33.8,33.8,100,30.16,1.8,NE,1.2,-,N/A,,Mostly Cloudy,50,2013-01-21 23:23:00
3:28 PM,32.0,32.0,100,30.16,2.5,Calm,Calm,-,N/A,,Overcast,0,2013-01-21 23:28:00
3:33 PM,32.0,32.0,100,30.16,2.5,ESE,1.2,-,N/A,,Overcast,120,2013-01-21 23:33:00
3:38 PM,32.0,32.0,100,30.15,2.0,ESE,1.2,-,N/A,,Overcast,110,2013-01-21 23:38:00
3:43 PM,32.0,32.0,100,30.15,1.8,Variable,2.3,-,N/A,,Overcast,0,2013-01-21 23:43:00
3:48 PM,32.0,32.0,100,30.16,1.2,Calm,Calm,-,N/A,,Overcast,0,2013-01-21 23:48:00
3:53 PM,32.0,32.0,100,30.16,1.2,Calm,Calm,-,N/A,,Overcast,0,2013-01-21 23:53:00
3:58 PM,33.4,33.4,100,30.18,1.2,Calm,Calm,-,N/A,,Overcast,0,2013-01-21 23:58:00
4:03 PM,32.0,32.0,100,30.16,1.8,North,3.5,-,N/A,,Mostly Cloudy,360,2013-01-22 00:03:00
4:13 PM,32.0,32.0,100,30.16,1.2,Variable,2.3,-,N/A,,Scattered Clouds,0,2013-01-22 00:13:00
4:18 PM,32.0,32.0,100,30.16,1.0,Calm,Calm,-,N/A,,Mist,0,2013-01-22 00:18:00
4:23 PM,32.0,32.0,100,30.16,0.8,NW,2.3,-,N/A,,Mist,310,2013-01-22 00:23:00
4:58 PM,33.3,33.3,100,30.18,0.8,NE,2.3,-,N/A,,Mist,50,2013-01-22 00:58:00
5:03 PM,32.0,32.0,100,30.16,0.5,NE,2.3,-,N/A,Fog,Fog,40,2013-01-22 01:03:00
5:08 PM,32.0,32.0,100,30.16,0.5,Variable,1.2,-,N/A,Fog,Fog,0,2013-01-22 01:08:00
5:18 PM,32.0,32.0,100,30.16,0.5,Calm,Calm,-,N/A,Fog,Fog,0,2013-01-22 01:18:00
5:23 PM,32.0,32.0,100,30.16,0.5,Calm,Calm,-,N/A,Fog,Fog,0,2013-01-22 01:23:00
5:38 PM,32.0,32.0,100,30.15,0.5,ESE,1.2,-,N/A,Fog,Fog,110,2013-01-22 01:38:00
5:48 PM,32.0,32.0,100,30.15,0.5,ENE,2.3,-,N/A,Fog,Fog,70,2013-01-22 01:48:00
5:58 PM,32.7,32.7,100,30.17,0.5,Variable,1.2,-,N/A,Fog,Fog,0,2013-01-22 01:58:00
6:23 PM,32.0,32.0,100,30.15,0.2,Variable,2.3,-,N/A,Fog,Fog,0,2013-01-22 02:23:00
6:38 PM,32.0,32.0,100,30.15,0.5,East,1.2,-,N/A,Fog,Fog,100,2013-01-22 02:38:00
6:53 PM,32.0,32.0,100,30.15,0.2,Calm,Calm,-,N/A,Fog,Fog,0,2013-01-22 02:53:00
6:58 PM,32.0,32.0,100,30.17,0.5,WSW,2.3,-,N/A,Fog,Light Freezing Fog,240,2013-01-22 02:58:00
7:58 PM,31.8,31.8,100,30.18,0.5,Calm,Calm,-,N/A,Fog,Light Freezing Fog,0,2013-01-22 03:58:00
8:53 PM,32.0,32.0,100,30.14,0.8,Variable,3.5,-,N/A,,Mist,0,2013-01-22 04:53:00
8:58 PM,31.1,31.1,100,30.16,0.8,Variable,2.3,-,N/A,,Mist,0,2013-01-22 04:58:00
9:38 PM,32.0,32.0,100,30.15,0.5,Calm,Calm,-,N/A,Fog,Light Freezing Fog,0,2013-01-22 05:38:00
9:48 PM,32.0,32.0,100,30.14,0.8,ENE,1.2,-,N/A,,Mist,60,2013-01-22 05:48:00
9:58 PM,31.1,31.1,100,30.17,0.8,Variable,1.2,-,N/A,,Mist,0,2013-01-22 05:58:00
10:08 PM,32.0,32.0,100,30.15,0.8,Calm,Calm,-,N/A,,Mist,0,2013-01-22 06:08:00
10:13 PM,32.0,32.0,100,30.15,0.8,South,2.3,-,N/A,,Mist,170,2013-01-22 06:13:00
10:23 PM,32.0,32.0,100,30.14,0.5,East,2.3,-,N/A,Fog,Light Freezing Fog,80,2013-01-22 06:23:00
10:28 PM,32.0,32.0,100,30.14,0.5,East,2.3,-,N/A,Fog,Light Freezing Fog,90,2013-01-22 06:28:00
10:33 PM,32.0,32.0,100,30.15,0.5,Variable,2.3,-,N/A,Fog,Light Freezing Fog,0,2013-01-22 06:33:00
10:53 PM,30.2,30.2,100,30.15,0.2,NNE,2.3,-,N/A,Fog,Light Freezing Fog,30,2013-01-22 06:53:00
10:58 PM,30.2,30.2,100,30.16,0.2,ENE,2.3,-,N/A,Fog,Light Freezing Fog,60,2013-01-22 06:58:00
11:28 PM,30.2,30.2,100,30.15,0.2,NNW,1.2,-,N/A,Fog,Light Freezing Fog,340,2013-01-22 07:28:00
11:33 PM,30.2,30.2,100,30.15,0.2,Calm,Calm,-,N/A,Fog,Light Freezing Fog,0,2013-01-22 07:33:00
11:58 PM,29.8,29.8,100,30.16,0.2,Calm,Calm,-,N/A,Fog,Light Freezing Fog,0,2013-01-22 07:58:00